Home > Weather > Dordrecht > Past weeks

Flag for Netherlands Past Weather in Dordrecht, Netherlands — Yesterday and Last 2 Weeks

Now
57 °F

Scattered clouds.


Feels Like: 57 °F
Forecast: 51 / 71 °F
Wind: 3 mph from Northeast

Location: Rotterdam Zestienhoven Airport

Current Time: May 26, 2016 at 10:49:38 AM

Latest Report: May 26, 2016 at 10:25 AM


Visibility: 5 mi

Pressure: 30.04 "Hg

Humidity: 82%

Dew Point: 52 °F

Location of DordrechtLocation

Past Weather in Dordrecht — Graph

°F

Dordrecht Temperature Yesterday

Maximum temperature yesterday: 57 °F (at 12:55 PM)
Minimum temperature yesterday: 48 °F (at 11:25 PM)
Average temperature yesterday: 53 °F

High & Low Weather Summary for the Past Weeks

 TemperatureHumidityPressure
High77 °F (May 12, 2:55 PM)100% (May 20, 10:25 AM)30.15 "Hg (May 20, 10:25 AM)
Low41 °F (May 16, 12:25 AM)36% (May 12, 2:25 PM)29.50 "Hg (May 12, 12:55 PM)
Average56 °F76%29.89 "Hg
* Reported May 11 9:25 AM — May 26 9:55 AM, Dordrecht, Weather by CustomWeather, © 2016

Note: Actual official high and low records may vary slightly from our data, if they occured in-between our weather recording intervals... More about our weather records

Advertising

Dordrecht Weather History for the Previous 24 Hours

Scroll right to see more
 ConditionsComfort  
Time TempWeatherWind HumidityBarometerVisibility
9:55 AM
Thu, May 26
55 °FMostly cloudy.2 mph82%30.04 "Hg4 mi
9:25 AM54 °FLow clouds.3 mph88%30.04 "Hg4 mi
8:55 AM54 °FMore clouds than sun.6 mph88%30.04 "Hg6 mi
8:25 AM52 °FOvercast.5 mph94%30.04 "HgN/A
7:55 AM50 °FOvercast.1 mph100%30.04 "Hg6 mi
7:25 AM48 °FOvercast.1 mph100%30.04 "Hg5 mi
6:55 AM45 °FOvercast.1 mph100%30.01 "Hg4 mi
6:25 AM43 °FFog.1 mph100%30.01 "Hg1 mi
5:55 AM41 °FFog.1 mph100%30.01 "Hg1 mi
5:25 AM43 °FPassing clouds.No wind100%30.01 "Hg5 mi
4:55 AM43 °FFog.No wind100%30.01 "Hg1 mi
4:25 AM43 °FFog.No wind100%30.01 "Hg1 mi
3:55 AM43 °FFog.1 mph100%30.01 "Hg0 mi
3:25 AM45 °FFog.3 mph100%30.01 "Hg1 mi
2:55 AM46 °FFog.1 mph100%30.01 "Hg2 mi
2:25 AM46 °FFog.2 mph100%30.01 "Hg2 mi
1:55 AM46 °FPassing clouds.1 mph100%30.01 "Hg4 mi
1:25 AM48 °FOvercast.No wind100%30.01 "HgN/A
12:55 AM48 °FOvercast.No wind100%30.01 "HgN/A
12:25 AM50 °FOvercast.2 mph94%30.01 "HgN/A
11:55 PM
Wed, May 25
48 °FClear.2 mph100%30.01 "Hg6 mi
11:25 PM48 °FClear.2 mph100%30.01 "HgN/A
10:55 PM50 °FClear.2 mph94%30.01 "HgN/A
10:25 PM52 °FClear.2 mph94%30.01 "HgN/A
9:55 PM52 °FClear.3 mph94%30.01 "HgN/A
9:25 PM54 °FPassing clouds.3 mph88%29.98 "HgN/A
8:55 PM54 °FClear.3 mph88%29.98 "HgN/A
8:25 PM54 °FScattered clouds.6 mph88%29.98 "HgN/A
7:55 PM55 °FOvercast.6 mph82%29.98 "HgN/A
7:25 PM55 °FPartly sunny.6 mph82%29.98 "HgN/A
6:55 PM55 °FPassing clouds.7 mph82%29.98 "HgN/A
6:25 PM55 °FMore clouds than sun.7 mph82%29.98 "HgN/A
5:55 PM57 °FBroken clouds.6 mph77%29.98 "HgN/A
5:25 PM57 °FMore clouds than sun.6 mph77%29.98 "HgN/A
4:55 PM57 °FMore clouds than sun.6 mph77%29.98 "HgN/A
4:25 PM57 °FOvercast.6 mph77%29.98 "HgN/A
3:55 PM57 °FOvercast.5 mph77%29.98 "HgN/A
3:25 PM57 °FMostly cloudy.6 mph82%29.98 "HgN/A
2:55 PM57 °FMostly cloudy.6 mph77%29.98 "HgN/A
2:25 PM57 °FOvercast.6 mph77%29.98 "HgN/A
1:55 PM57 °FCloudy.6 mph82%29.98 "HgN/A
1:25 PM57 °FCloudy.6 mph77%29.98 "HgN/A
12:55 PM57 °FOvercast.5 mph82%29.98 "HgN/A
12:25 PM55 °FPartly sunny.7 mph88%29.98 "HgN/A
11:55 AM55 °FBroken clouds.6 mph88%29.98 "HgN/A
11:25 AM55 °FLight rain. Broken clouds.5 mph88%29.98 "HgN/A
10:55 AM55 °FPartly sunny.3 mph82%29.98 "HgN/A
10:25 AM54 °FMore clouds than sun.5 mph94%29.98 "HgN/A
Weather by CustomWeather, © 2016

See weather overviewHow to use our weather pages